This is the latest recevied weather packets stored in our database for station/object VA3PC-13. If no packets are shown the sender has not sent any weather packets the latest 10 day(s).
| Time | Temp. | Humidity | Pressure | Rain* | Wind** | Luminosity | Snow |
|---|---|---|---|---|---|---|---|
| 1777785919 | 1.11° C | 74% | 982.7 hPa | 0 mm | - | 0 W/m² | - |
| 1777774519 | 2.78° C | 64% | 983.5 hPa | 0 mm | - | 0 W/m² | - |
| 1777772119 | 3.33° C | 62% | 983.6 hPa | 0 mm | - | 0 W/m² | - |
| 1777771519 | 3.89° C | 63% | 983.6 hPa | 0 mm | - | 0 W/m² | - |
| 1777767917 | 5° C | 62% | 983.3 hPa | 0 mm | - | 3 W/m² | - |
| 1777766141 | 5° C | 63% | 983.2 hPa | 0 mm | - | 14 W/m² | - |
| 1777765521 | 5° C | 64% | 983.2 hPa | 0 mm | - | 21 W/m² | - |
| 1777760719 | 5.56° C | 61% | 983.2 hPa | 0 mm | - | 94 W/m² | - |
| 1777760140 | 5.56° C | 61% | 983.4 hPa | 0 mm | - | 102 W/m² | - |
| 1777758320 | 6.67° C | 54% | 983.3 hPa | 0 mm | - | 85 W/m² | - |
| 1777751721 | 6.67° C | 55% | 983.8 hPa | 0 mm | - | 157 W/m² | - |
| 1777750519 | 7.22° C | 51% | 983.7 hPa | 0 mm | - | 293 W/m² | - |
| 1777743359 | 5.56° C | 55% | 984.2 hPa | 0 mm | - | 434 W/m² | - |
| 1777740919 | 6.67° C | 50% | 984.2 hPa | 0 mm | - | 506 W/m² | - |
| 1777740318 | 6.67° C | 49% | 983.9 hPa | 0 mm | - | 675 W/m² | - |
| 1777737918 | 6.67° C | 51% | 984 hPa | 0 mm | - | 739 W/m² | - |
| 1777733719 | 4.44° C | 57% | 983.6 hPa | 0 mm | - | 729 W/m² | - |
| 1777732520 | 4.44° C | 57% | 983.1 hPa | 0 mm | - | 683 W/m² | - |
| 1777731320 | 3.89° C | 61% | 984.7 hPa | 0 mm | - | 68 W/m² | - |
| 1777729540 | 3.33° C | 63% | 984.9 hPa | 0 mm | - | 50 W/m² | - |
| 1777728917 | 2.78° C | 64% | 985 hPa | 0 mm | - | 47 W/m² | - |
| 1777719319 | 0° C | 79% | 985.3 hPa | 0 mm | - | 16 W/m² | - |
| 1777718120 | 1.11° C | 76% | 985.2 hPa | 0 mm | - | 11 W/m² | - |
| 1777713917 | 1.11° C | 76% | 984.4 hPa | 0 mm | - | 0 W/m² | - |
| 1777712720 | 1.67° C | 74% | 984.4 hPa | 0 mm | - | 0 W/m² | - |
* Rain latest hour (hover to see other rain measurements)
** Current wind speed in m/s (hover to see current wind gust speed)